Weather observations for the past three days for
Solon Springs Municipal Airport
Imperial (Metric)
Date Time (cdt) Wind (mph) Vis. (mi.) Weather Sky Cond. Temperature (ºF) Relative Humidity Wind Chill (°F) Heat Index (°F) Pressure Precipitation (in)
Air Dwpt 6 hour altimeter (in) sea level (mb) 1 hr 3 hr 6 hr
Max. Min.
18 05:15 Calm 5.00 Fair CLR 41 41 100% 30.24 0.0
18 04:55 Calm 2.00 Mostly Cloudy BKN001 41 39.2 93% 30.23 0.0
18 04:35 Calm 5.00 Mostly Cloudy BKN001 42.8 41 93% 30.23 0.0
18 04:15 Calm 4.00 Fair CLR 42.8 41 93% 30.21 0.0
18 03:55 Calm 10.00 Fair CLR 42.8 41 93% 30.2 0.0
18 03:40 Calm 4.00 Fair CLR 42.8 41 93% 30.2 0.0
18 03:15 Calm 1.00 Mostly Cloudy BKN002 42.8 42.8 100% 30.2 0.0
18 02:55 Calm 1.25 Partly Cloudy SCT002 42.8 42.8 100% 30.19 0.0
18 02:40 Calm 0.25 Mostly Cloudy BKN002 44.6 42.8 93% 30.19 0.0
18 02:15 Calm 10.00 Fair CLR 44.6 42.8 93% 30.2 0.0
18 01:55 Calm 7.00 Fair CLR 44.6 44.6 100% 30.2 0.0
18 01:35 Calm 4.00 Fair CLR 44.6 44.6 100% 30.19 0.0
18 01:20 Calm 10.00 Fair CLR 46.4 44.6 93% 30.19 0.0
18 00:55 Calm 10.00 Fair CLR 46.4 44.6 93% 30.19 0.0
18 00:35 Calm 10.00 Fair CLR 46.4 44.6 93% 30.19 0.0
18 00:15 Calm 10.00 Partly Cloudy SCT070 48.2 46.4 94% 30.19 0.0
17 23:55 Calm 10.00 Partly Cloudy SCT070 50 46.4 88% 30.19 0.0
17 23:35 Calm 10.00 Mostly Cloudy BKN070 50 46.4 88% 30.18 0.0
17 23:15 Calm 10.00 Partly Cloudy SCT070 50 48.2 94% 30.18 0.0
17 22:55 Calm 10.00 Partly Cloudy SCT070 50 48.2 94% 30.18 0.0
17 22:35 Calm 10.00 Fair CLR 50 50 100% 30.17 0.0
17 22:15 Calm 10.00 Fair CLR 51.8 50 94% 30.17 0.0
17 21:55 Calm 10.00 Fair CLR 51.8 50 94% 30.17 0.0
17 21:35 Calm 10.00 Fair CLR 53.6 51.8 94% 30.17 0.0
17 21:15 Calm 10.00 Fair CLR 53.6 50 88% 30.16 0.0
17 20:55 Calm 10.00 Fair CLR 55.4 50 82% 30.16 0.0
17 20:40 Calm 10.00 Fair CLR 60.8 50 68% 30.16 0.0
17 20:15 Calm 10.00 Fair CLR 62.6 50 64% 30.16 0.0
17 19:55 NW 3 10.00 Fair CLR 64.4 48.2 56% 30.15 0.0
17 19:35 Calm 10.00 Mostly Cloudy BKN070 66.2 46.4 49% 30.15 0.0
17 19:15 N 5 10.00 Overcast SCT050 OVC060 66.2 46.4 49% 30.16 0.0
17 18:55 N 6 10.00 Mostly Cloudy SCT050 BKN060 68 46.4 46% 30.15 0.0
17 18:35 N 3 10.00 Partly Cloudy SCT060 69.8 44.6 40% 30.15 0.0
17 18:15 Calm 10.00 Overcast SCT050 OVC060 68 46.4 46% 30.15 0.0
17 17:55 N 6 10.00 Overcast SCT050 OVC060 68 44.6 43% 30.15 0.0
17 17:35 N 6 10.00 Overcast OVC060 68 44.6 43% 30.15 0.0
17 17:15 NW 8 10.00 Overcast SCT050 OVC060 68 46.4 46% 30.15 0.0
17 16:55 NW 8 10.00 Mostly Cloudy SCT050 BKN060 68 44.6 43% 30.15 0.0
17 16:40 NW 7 10.00 Mostly Cloudy SCT050 BKN060 68 46.4 46% 30.15 0.0
17 16:15 NW 12 10.00 Overcast SCT046 OVC060 69.8 46.4 43% 30.15 0.0
17 15:55 NW 8 10.00 Overcast SCT046 OVC060 68 46.4 46% 30.15 0.0
17 15:40 NW 6 10.00 Mostly Cloudy BKN060 68 46.4 46% 30.15 0.0
17 15:15 NW 9 10.00 Overcast SCT044 OVC060 68 46.4 46% 30.15 0.0
17 14:55 NW 7 10.00 Overcast SCT044 OVC060 66.2 46.4 49% 30.15 0.0
17 14:35 N 6 10.00 Overcast SCT042 OVC060 66.2 46.4 49% 30.15 0.0
17 14:15 NW 10 10.00 Overcast SCT042 OVC060 68 46.4 46% 30.15 0.0
17 13:55 NW 6 10.00 Overcast SCT044 OVC060 68 46.4 46% 30.14 0.0
17 13:35 N 9 10.00 Overcast SCT042 SCT049 OVC060 66.2 46.4 49% 30.14 0.0
17 13:15 NW 5 10.00 Overcast SCT040 OVC050 64.4 48.2 56% 30.15 0.0
17 13:00 N 8 10.00 Mostly Cloudy SCT040 SCT048 BKN050 66.2 46.4 49% 30.14 0.0
17 12:35 N 9 G 16 10.00 Partly Cloudy SCT040 SCT050 68 46.4 46% 30.14 0.0
17 12:15 N 8 G 22 10.00 Partly Cloudy SCT036 SCT044 SCT050 64.4 48.2 56% 30.15 0.0
17 11:55 N 9 10.00 Partly Cloudy SCT035 SCT040 SCT048 66.2 48.2 52% 30.15 0.0
17 11:35 N 8 G 17 10.00 Partly Cloudy SCT035 SCT044 64.4 46.4 52% 30.15 0.0
17 11:15 N 9 10.00 Fair CLR 64.4 46.4 52% 30.14 0.0
17 10:55 N 12 10.00 Partly Cloudy SCT029 62.6 48.2 60% 30.13 0.0
17 10:30 N 5 10.00 Mostly Cloudy BKN031 BKN036 60.8 46.4 59% 30.14 0.0
17 10:20 NW 9 10.00 Mostly Cloudy BKN031 BKN036 62.6 46.4 56% 30.13 0.0
17 09:55 N 10 G 17 10.00 Partly Cloudy SCT027 SCT035 60.8 46.4 59% 30.12 0.0
17 09:35 N 9 10.00 Partly Cloudy SCT025 60.8 46.4 59% 30.12 0.0
17 09:15 NW 10 G 17 10.00 Partly Cloudy SCT024 60.8 46.4 59% 30.11 0.0
17 08:55 N 12 10.00 Fair CLR 59 46.4 63% 30.11 0.0
17 08:35 N 12 G 17 10.00 Fair CLR 59 46.4 63% 30.1 0.0
17 08:15 N 7 G 17 10.00 Fair CLR 57.2 46.4 67% 30.1 0.0
17 07:55 N 6 10.00 Fair CLR 57.2 48.2 72% 30.09 0.0
17 07:35 NW 7 G 17 10.00 Fair CLR 55.4 46.4 72% 30.08 0.0
17 07:15 NW 8 10.00 Fair CLR 55.4 46.4 72% 30.08 0.0
17 06:55 N 9 10.00 Fair CLR 53.6 48.2 82% 30.07 0.0
17 06:40 N 9 10.00 Fair CLR 53.6 48.2 82% 30.07 0.0
17 06:15 N 8 10.00 Fair CLR 53.6 50 88% 30.06 0.0
17 05:55 N 8 10.00 Fair CLR 51.8 50 94% 30.05 0.0
17 05:35 N 7 10.00 Fair CLR 51.8 51.8 100% 30.04 0.0
17 05:15 NW 5 10.00 Fair CLR 53.6 51.8 94% 30.02 0.0
17 04:55 NW 5 10.00 Fair CLR 51.8 51.8 100% 30.02 0.0
17 04:35 NW 5 10.00 Partly Cloudy SCT080 53.6 50 88% 30.01 0.0
17 04:15 NW 6 10.00 Partly Cloudy SCT080 53.6 50 88% 30.01 0.0
17 03:55 N 3 10.00 Partly Cloudy SCT080 53.6 51.8 94% 30 0.0
17 03:35 NW 6 10.00 Partly Cloudy SCT080 53.6 51.8 94% 30 0.0
17 03:15 NW 3 10.00 Overcast OVC080 53.6 51.8 94% 30 0.0
17 02:55 Calm 10.00 Mostly Cloudy SCT080 BKN085 53.6 51.8 94% 29.99 0.0
17 02:35 Calm 10.00 Partly Cloudy SCT080 53.6 50 88% 29.99 0.0
17 02:15 NW 3 10.00 Fair CLR 53.6 50 88% 29.99 0.0
17 01:55 NW 3 10.00 Fair CLR 53.6 50 88% 29.98 0.0
17 01:35 NW 5 10.00 Fair CLR 53.6 48.2 82% 29.98 0.0
17 01:15 NW 6 10.00 Fair CLR 55.4 48.2 77% 29.98 0.0
17 00:55 NW 5 10.00 Fair CLR 55.4 48.2 77% 29.97 0.0
17 00:35 NW 5 10.00 Fair CLR 55.4 48.2 77% 29.97 0.0
17 00:15 NW 6 10.00 Partly Cloudy SCT090 57.2 48.2 72% 29.96 0.0
16 23:55 NW 5 10.00 Fair CLR 57.2 48.2 72% 29.96 0.0
16 23:35 NW 6 10.00 Fair CLR 57.2 50 77% 29.95 0.0
16 23:15 NW 5 10.00 Fair CLR 55.4 50 82% 29.95 0.0
16 23:00 NW 3 10.00 Fair CLR 57.2 50 77% 29.95 0.0
16 22:35 NW 3 10.00 Fair CLR 59 50 72% 29.95 0.0
16 22:20 Calm 10.00 Fair CLR 60.8 50 68% 29.95 0.0
16 22:00 N 5 10.00 Fair CLR 60.8 50 68% 29.94 0.0
16 21:35 N 5 10.00 Fair CLR 62.6 50 64% 29.93 0.0
16 21:15 N 5 10.00 Fair CLR 62.6 50 64% 29.92 0.0
16 20:55 N 3 10.00 Fair CLR 62.6 50 64% 29.92 0.0
16 20:35 N 3 10.00 Fair CLR 64.4 50 60% 29.92 0.0
16 20:15 N 6 10.00 Partly Cloudy SCT065 SCT100 68 50 53% 29.92 0.0
16 19:55 NW 5 10.00 Partly Cloudy SCT065 68 50 53% 29.91 0.0
16 19:35 W 5 10.00 Fair CLR 69.8 50 50% 29.9 0.0
16 19:15 W 7 10.00 Fair CLR 69.8 50 50% 29.9 0.0
16 18:55 W 5 10.00 Fair CLR 71.6 50 47% 29.9 0.0
16 18:35 W 8 10.00 Fair CLR 71.6 50 47% 29.9 0.0
16 18:15 W 8 10.00 Partly Cloudy SCT100 71.6 50 47% 29.9 0.0
16 17:55 NW 8 10.00 Mostly Cloudy SCT070 SCT075 BKN090 71.6 50 47% 29.9 0.0
16 17:35 NW 7 G 16 10.00 Overcast SCT060 BKN080 OVC100 71.6 50 47% 29.9 0.0
16 17:15 W 7 10.00 Overcast SCT060 OVC110 71.6 50 47% 29.89 0.0
16 16:55 NW 7 10.00 Overcast OVC110 77 48.2 36% 78 29.89 0.0
16 16:35 NW 8 10.00 Mostly Cloudy BKN095 73.4 48.2 41% 29.88 0.0
16 16:15 NW 8 10.00 Mostly Cloudy SCT060 BKN095 71.6 46.4 41% 29.88 0.0
16 15:55 W 7 10.00 Partly Cloudy SCT060 73.4 46.4 38% 29.88 0.0
16 15:35 NW 9 G 20 10.00 Mostly Cloudy SCT060 BKN070 75.2 46.4 36% 77 29.88 0.0
16 15:15 NW 8 10.00 Partly Cloudy SCT060 73.4 46.4 38% 29.88 0.0
16 14:55 N 10 10.00 Partly Cloudy SCT060 75.2 46.4 36% 77 29.88 0.0
16 14:35 NW 9 10.00 Partly Cloudy SCT060 73.4 46.4 38% 29.88 0.0
16 14:15 N 7 10.00 Partly Cloudy SCT060 73.4 44.6 36% 29.87 0.0
16 13:55 N 7 10.00 Partly Cloudy SCT060 73.4 46.4 38% 29.87 0.0
16 13:35 W 8 10.00 Partly Cloudy SCT050 73.4 48.2 41% 29.88 0.0
16 13:15 NW 6 10.00 Mostly Cloudy BKN050 69.8 46.4 43% 29.88 0.0
16 12:55 NW 8 10.00 Mostly Cloudy BKN050 71.6 50 47% 29.88 0.0
16 12:35 W 9 10.00 Mostly Cloudy BKN050 69.8 50 50% 29.88 0.0
16 12:15 NW 5 10.00 Partly Cloudy SCT055 71.6 48.2 44% 29.88 0.0
16 11:55 NW 8 10.00 Partly Cloudy SCT046 SCT055 71.6 50 47% 29.88 0.0
16 11:35 NW 5 10.00 Partly Cloudy SCT039 SCT047 71.6 51.8 50% 29.87 0.0
16 11:15 NW 6 10.00 Mostly Cloudy BKN039 BKN049 71.6 53.6 53% 29.87 0.0
16 11:00 NW 7 10.00 Mostly Cloudy BKN035 71.6 53.6 53% 29.86 0.0
16 10:35 NW 9 10.00 Partly Cloudy SCT033 69.8 55.4 60% 29.86 0.0
16 10:15 NW 7 10.00 Fair CLR 69.8 55.4 60% 29.86 0.0
16 09:55 N 6 10.00 Fair CLR 69.8 57.2 64% 29.86 0.0
16 09:35 NW 6 10.00 Partly Cloudy SCT075 68 59 73% 29.86 0.0
16 09:15 NW 7 10.00 Overcast SCT075 OVC085 68 59 73% 29.85 0.0
16 08:55 NW 5 10.00 Overcast SCT060 OVC085 64.4 60.8 88% 29.85 0.0
16 08:40 Calm 10.00 Mostly Cloudy SCT060 BKN085 62.6 60.8 94% 29.85 0.0
16 08:15 Calm 10.00 Fair CLR 60.8 59 94% 29.85 0.0
16 07:55 Calm 10.00 Fair CLR 60.8 59 94% 29.84 0.0
16 07:35 Calm 10.00 Fair CLR 59 57.2 94% 29.83 0.0
16 07:15 Calm 10.00 Partly Cloudy SCT090 59 57.2 94% 29.83 0.0
16 06:55 Calm 7.00 Fair CLR 55.4 55.4 100% 29.83 0.0
16 06:35 Calm 2.00 Fair CLR 55.4 53.6 94% 29.82 0.0
16 06:15 Calm 0.25 Overcast OVC003 53.6 51.8 94% 29.82 0.0
16 05:55 Calm 0.15 Overcast OVC003 55.4 53.6 94% 29.82 0.0
16 05:35 Calm 0.15 Overcast OVC003 55.4 53.6 94% 29.81 0.0
16 05:15 Calm 0.25 Overcast OVC003 55.4 53.6 94% 29.82 0.0
16 04:55 Calm 0.15 Overcast OVC003 57.2 55.4 94% 29.81 0.0
16 04:35 Calm 0.25 Overcast OVC003 59 55.4 88% 29.81 0.0
16 04:15 Calm 2.00 Mostly Cloudy BKN003 60.8 59 94% 29.8 0.0
16 03:55 Calm 7.00 Overcast OVC005 60.8 59 94% 29.8 0.0
16 03:35 Calm 10.00 Mostly Cloudy BKN005 60.8 59 94% 29.81 0.0
16 03:15 Calm 10.00 Partly Cloudy SCT005 60.8 60.8 100% 29.81 0.0
16 02:55 Calm 10.00 Mostly Cloudy BKN005 BKN075 62.6 60.8 94% 29.8 0.0
16 02:35 Calm 10.00 Overcast OVC005 62.6 60.8 94% 29.81 0.0
16 02:15 Calm 7.00 Overcast OVC003 62.6 60.8 94% 29.8 0.0
16 01:55 Calm 7.00 Overcast BKN003 BKN009 OVC070 62.6 60.8 94% 29.81 0.0
16 01:35 Calm 7.00 Overcast BKN032 OVC070 60.8 60.8 100% 29.81 0.0
16 01:15 Calm 7.00 Overcast SCT032 OVC070 60.8 59 94% 29.81 0.0
16 00:55 Calm 4.00 Overcast OVC070 60.8 59 94% 29.8 0.0
16 00:35 Calm 5.00 Mostly Cloudy BKN070 60.8 59 94% 29.8 0.0
16 00:20 Calm 10.00 Partly Cloudy SCT070 60.8 60.8 100% 29.8 0.0
15 23:55 NE 5 10.00 Partly Cloudy SCT070 62.6 60.8 94% 29.78 0.0
15 23:35 NE 5 10.00 Mostly Cloudy BKN070 62.6 60.8 94% 29.78 0.0
15 23:15 NE 3 10.00 Partly Cloudy SCT070 62.6 62.6 100% 29.78 0.0
15 22:55 E 3 10.00 Mostly Cloudy SCT029 SCT039 BKN070 64.4 62.6 94% 29.78 0.0
15 22:35 Calm 10.00 Mostly Cloudy SCT035 SCT043 BKN075 64.4 62.6 94% 29.78 0.0
15 22:15 E 5 10.00 Mostly Cloudy SCT022 SCT035 BKN070 64.4 64.4 100% 29.78 0.0
15 22:00 N 3 10.00 Mostly Cloudy BKN022 BKN034 BKN070 64.4 62.6 94% 29.78 0.0
15 21:35 Calm 10.00 Partly Cloudy SCT034 SCT050 SCT065 64.4 64.4 100% 29.77 0.0
15 21:15 Calm 10.00 Mostly Cloudy SCT014 BKN049 BKN065 68 64.4 88% 29.75 0.0
15 21:00 SE 3 10.00 Overcast BKN012 OVC049 68 66.2 94% 29.74 0.0
15 20:35 Calm 10.00 Partly Cloudy SCT012 69.8 64.4 83% 29.72 0.0
15 19:55 NE 7 10.00 Fair CLR 71.6 62.6 73% 29.71 0.0
15 19:35 NE 9 10.00 Partly Cloudy SCT014 SCT021 71.6 64.4 78% 29.71 0.0
15 19:15 NE 13 10.00 Partly Cloudy SCT014 SCT021 73.4 68 83% 29.7 0.0
15 18:55 N 9 10.00 Partly Cloudy SCT030 SCT040 SCT050 75.2 68 78% 76 29.7 0.0
15 18:35 N 7 10.00 Mostly Cloudy SCT030 SCT040 BKN050 73.4 69.8 89% 29.7 0.0
15 18:15 W 5 10.00 Partly Cloudy SCT055 SCT070 73.4 71.6 94% 29.7 0.0
15 17:55 Calm 10.00 Mostly Cloudy SCT031 SCT047 BKN070 71.6 69.8 94% 29.7 0.0 0.1
15 17:35 Calm 1.75 Overcast SCT021 BKN034 OVC044 68 68 100% 29.71 0.0 0.1
15 17:15 N 10 10.00 Overcast BKN037 OVC044 78.8 62.6 58% 80 29.7 0.0
15 16:55 SW 7 10.00 Overcast BKN039 OVC050 78.8 62.6 58% 80 29.69 0.0
15 16:35 SW 7 10.00 Overcast BKN039 OVC050 78.8 64.4 61% 81 29.7 0.0
15 16:15 SW 10 G 17 10.00 Overcast OVC042 80.6 62.6 54% 82 29.7 0.0
15 15:55 SW 8 10.00 Mostly Cloudy SCT039 BKN045 BKN075 80.6 62.6 54% 82 29.7 0.0
15 15:35 SW 10 G 18 10.00 Mostly Cloudy SCT045 BKN060 BKN075 80.6 62.6 54% 82 29.71 0.0
15 15:15 W 10 G 16 10.00 Mostly Cloudy SCT043 BKN060 BKN095 78.8 60.8 54% 80 29.71 0.0
15 14:55 W 10 10.00 Partly Cloudy SCT070 SCT080 80.6 62.6 54% 82 29.71 0.0
15 14:35 SW 12 G 17 10.00 Mostly Cloudy BKN075 BKN085 80.6 60.8 51% 81 29.71 0.0
15 14:15 SW 10 G 16 10.00 Overcast SCT047 OVC070 80.6 60.8 51% 81 29.71 0.0
15 13:55 W 10 G 22 10.00 Mostly Cloudy SCT047 BKN070 80.6 59 48% 81 29.72 0.0
15 13:35 W 8 10.00 Partly Cloudy SCT070 82.4 62.6 51% 83 29.72 0.0
15 13:15 SW 10 10.00 Partly Cloudy SCT041 SCT070 SCT100 80.6 60.8 51% 81 29.72 0.0
15 12:55 SW 9 10.00 Partly Cloudy SCT041 SCT047 SCT095 80.6 60.8 51% 81 29.73 0.0
15 12:40 W 10 G 18 10.00 Partly Cloudy SCT033 SCT042 80.6 60.8 51% 81 29.74 0.0
15 12:15 SW 12 G 21 10.00 Partly Cloudy SCT030 SCT039 SCT047 80.6 64.4 58% 82 29.74 0.0
15 11:55 SW 9 G 20 10.00 Mostly Cloudy SCT032 BKN041 BKN047 78.8 64.4 61% 81 29.74 0.0
15 11:35 SW 8 10.00 Partly Cloudy SCT032 SCT041 SCT065 80.6 64.4 58% 82 29.75 0.0
15 11:15 SW 7 10.00 Partly Cloudy SCT047 80.6 64.4 58% 82 29.76 0.0
15 11:00 SW 8 10.00 Partly Cloudy SCT047 78.8 64.4 61% 81 29.77 0.0
15 10:35 SW 5 10.00 Partly Cloudy SCT049 77 64.4 65% 79 29.77 0.0
15 10:15 S 6 10.00 Fair CLR 75.2 64.4 69% 77 29.77 0.0
15 09:55 S 8 10.00 Fair CLR 75.2 62.6 65% 77 29.78 0.0
15 09:30 S 8 10.00 Fair CLR 73.4 64.4 74% 29.8 0.0
15 09:15 S 7 10.00 Fair CLR 71.6 62.6 73% 29.8 0.0
15 08:55 S 6 10.00 Fair CLR 69.8 64.4 83% 29.8 0.0
15 08:40 Calm 10.00 Partly Cloudy SCT120 64.4 64.4 100% 29.8 0.0
15 08:15 Calm 10.00 Partly Cloudy SCT110 62.6 60.8 94% 29.82 0.0
15 07:55 Calm 10.00 Fair CLR 60.8 60.8 100% 29.83 0.0
15 07:35 Calm 10.00 Fair CLR 60.8 59 94% 29.84 0.0
15 07:20 Calm 10.00 Fair CLR 60.8 59 94% 29.84 0.0
15 06:55 Calm 10.00 Fair CLR 60.8 59 94% 29.82 0.0
15 06:40 Calm 5.00 Fair CLR 59 57.2 94% 29.82 0.0
15 06:15 Calm 2.50 Fair CLR 55.4 53.6 94% 29.82 0.0
15 05:55 Calm 0.25 Sky Obscured VV002 55.4 53.6 94% 29.83 0.0
Date Time (cdt) Wind (mph) Vis. (mi.) Weather Sky Cond. Air Dwpt Max. Min. Relative Humidity Wind Chill (°F) Heat Index (°F) altimeter (in) sea level (mb) 1 hr 3 hr 6 hr
6 hour
Temperature (ºF) Pressure Precipitation (in)